Location: ?????
(33.6267°N, 35.4675°E)
Time: 16:01:21
(UTC+00:00)

Cosmos 1464 Rocket - Pass Details

Date: 12 November 2019
Orbit: 951 x 1002 km, 82.9° (Epoch: 14 December)

Event Time Altitude Azimuth Distance (km) Brightness Sun altitude
Rises 16:27:13 0° 351° (N) 3,650 7.0 -23.0°
Reaches altitude 10° 16:29:44 10° 349° (N) 2,695 6.4 -23.5°
Maximum altitude 16:35:51 72° 267° (W) 1,001 4.1 -24.8°
Drops below altitude 10° 16:41:54 10° 184° (S) 2,667 6.4 -26.0°
Sets 16:44:23 0° 182° (S) 3,609 7.1 -26.5°
